{"data":{"norad_id":42957,"intl_designator":"2017-061C","name":"IRIDIUM 122","alt_names":[],"object_type":"PAYLOAD","status":"ACTIVE","operator":null,"country":"US","launch_date":"2017-10-09","launch_site_code":"AFWTR","launch_vehicle":null,"mission":null,"orbit_class":"UNKNOWN","rcs_meters":null,"size_class":null,"mass_kg":null,"dimensions":null,"purposes":["comms"],"wikipedia_slug":null,"has_3d_model":false,"image_url":null,"decayed_at":null,"tle_current":{"epoch":"2026-05-25T02:37:34.716576Z","epoch_age_seconds":69549,"freshness":"FRESH","line1":"1 42957U 17061C   26145.10942959  .00000060  00000+0  14226-4 0  9993","line2":"2 42957  86.3989  34.8334 0002301  83.7306 276.4151 14.34217689451472","mean_motion":14.34217689,"eccentricity":0.0002301,"inclination_deg":86.3989,"raan_deg":34.8334,"arg_perigee_deg":83.7306,"mean_anomaly_deg":276.4151,"bstar":1.4226e-5,"rev_number":45147,"period_min":100.40316829477,"perigee_km":776.02080667083,"apogee_km":779.31390783604,"semimajor_km":7155.8043572534,"source":"CELESTRAK","updated_at":"2026-05-25T13:38:14.802480Z"}}}